Weather History for South Bend, IN

Change the Weather History Date:

Thursday, September 19, 2013

  Actual Average Record
Temperature  
Mean Temperature 71 °F 63 °F  
Max Temperature 75 °F 73 °F 95 °F (1906)
Min Temperature 66 °F 52 °F 34 °F (1929)
Degree Days  
Heating Degree Days 0 4  
Month to date heating degree days 38 45  
Since 1 July heating degree days 67 63  
Cooling Degree Days 6 2  
Month to date cooling degree days 113 66  
Year to date cooling degree days 793 748  
Growing Degree Days 20 (Base 50)    
Moisture  
Dew Point 65 °F    
Average Humidity 90    
Maximum Humidity 97    
Minimum Humidity 76    
Precipitation  
Precipitation 3.44 in 0.12 in 3.44 in (2013)
Month to date precipitation 3.87 2.22  
Year to date precipitation 30.79 27.49  
Snow  
Snow 0.00 in - - ()
Month to date snowfall 0.0  
Snow Depth 0.00 in    
Sea Level Pressure  
Sea Level Pressure 29.99 in    
Wind  
Wind Speed 9 mph (South)    
Max Wind Speed 17 mph    
Max Gust Speed 23 mph    
Visibility 7 miles    
Events Rain , Thunderstorm    
T = Trace of Precipitation, MM = Missing Value Source: NWS Daily Summary

Daily Weather History Graph

Daily Weather History Graph

Search for Another Location

Airport:

Trip Planner

Search our weather history database for the weather conditions in past years. The results will help you decide how hot, cold, wet, or windy it might be!

Date:

Astronomy

Sep. 19, 2013 Rise Set
Actual Time 7:29 AM EDT 7:47 PM EDT
Civil Twilight 7:02 AM EDT 8:15 PM EDT
Nautical Twilight 6:29 AM EDT 8:47 PM EDT
Astronomical Twilight 5:55 AM EDT 9:20 PM EDT
Moon 7:44 PM EDT (9/19) 7:39 AM EDT (9/19)
Length of Visible Light 13h 12m
Length of Day
12h 17m
Full, 100% of the Moon is Illuminated
Sep 19
Full
Sep 26
Last Quarter
Oct 4
New
Oct 11
First Quarter
Oct 18
Full

Hourly Weather History & Observations

Time (EDT) Temp. Dew Point Humidity Pressure Visibility Wind Dir Wind Speed Gust Speed Precip Events Conditions
12:54 AM 69.1 °F 66.0 °F 90% 29.99 in 10.0 mi SSW 11.5 mph - 0.08 in Rain , Thunderstorm Light Rain
1:03 AM 69.8 °F 66.2 °F 88% 30.00 in 10.0 mi SSW 10.4 mph - 0.00 in Rain Light Rain
1:54 AM 68.0 °F 64.9 °F 90% 30.00 in 10.0 mi WSW 5.8 mph - 0.01 in   Mostly Cloudy
2:54 AM 66.9 °F 64.9 °F 93% 30.01 in 10.0 mi WSW 6.9 mph - N/A   Overcast
3:06 AM 66.2 °F 64.4 °F 94% 30.02 in 10.0 mi SW 9.2 mph - N/A   Overcast
3:19 AM 66.2 °F 64.4 °F 94% 30.02 in 10.0 mi SW 9.2 mph - N/A   Overcast
3:54 AM 66.0 °F 64.0 °F 93% 29.99 in 10.0 mi SSW 9.2 mph - 0.00 in Rain Light Rain
4:54 AM 66.0 °F 64.0 °F 93% 29.99 in 10.0 mi SW 6.9 mph - 0.00 in   Scattered Clouds
5:54 AM 66.0 °F 63.0 °F 90% 29.98 in 10.0 mi SSW 8.1 mph - N/A Thunderstorm Overcast
6:54 AM 66.9 °F 64.0 °F 90% 30.00 in 10.0 mi ESE 4.6 mph - 0.12 in Rain , Thunderstorm Light Thunderstorms and Rain
7:13 AM 66.2 °F 64.4 °F 94% 30.02 in 10.0 mi Calm Calm - 0.00 in   Mostly Cloudy
7:32 AM 66.2 °F 64.4 °F 94% 30.03 in 10.0 mi WSW 4.6 mph - 0.00 in Rain , Thunderstorm Light Rain
7:54 AM 66.9 °F 64.9 °F 93% 30.03 in 3.0 mi West 3.5 mph - 0.02 in Rain , Thunderstorm Thunderstorms and Rain
8:01 AM 66.2 °F 64.4 °F 94% 30.03 in 2.0 mi Calm Calm - 0.07 in Rain , Thunderstorm Heavy Thunderstorms and Rain
8:29 AM 66.2 °F 64.4 °F 94% 30.01 in 10.0 mi South 9.2 mph - 0.25 in Thunderstorm Overcast
8:37 AM 66.2 °F 64.4 °F 94% 30.01 in 10.0 mi SSW 10.4 mph - 0.25 in   Overcast
8:54 AM 66.9 °F 64.9 °F 93% 30.00 in 10.0 mi SSW 9.2 mph - 0.25 in   Overcast
9:26 AM 68.0 °F 64.4 °F 88% 30.00 in 10.0 mi SSW 11.5 mph - N/A Thunderstorm Mostly Cloudy
9:54 AM 68.0 °F 64.9 °F 90% 30.00 in 8.0 mi SW 11.5 mph - 0.00 in Rain , Thunderstorm Light Rain
10:33 AM 68.0 °F 64.4 °F 88% 30.03 in 2.5 mi WNW 10.4 mph - 0.10 in Rain , Thunderstorm Heavy Thunderstorms and Rain
10:54 AM 68.0 °F 66.0 °F 93% 30.04 in 2.5 mi West 13.8 mph - 0.47 in Rain , Thunderstorm Heavy Thunderstorms and Rain
11:06 AM 69.8 °F 64.4 °F 83% 30.04 in 0.8 mi Variable 3.5 mph - 0.77 in Rain , Thunderstorm Heavy Thunderstorms and Rain
11:19 AM 66.2 °F 64.4 °F 94% 30.04 in 2.0 mi South 10.4 mph - 1.10 in Rain , Thunderstorm Heavy Thunderstorms and Rain
11:30 AM 66.2 °F 64.4 °F 94% 30.04 in 1.5 mi South 10.4 mph - 1.37 in Rain , Thunderstorm Heavy Thunderstorms and Rain
11:37 AM 68.0 °F 66.2 °F 94% 30.04 in 0.8 mi South 10.4 mph - 1.54 in Rain , Thunderstorm Heavy Thunderstorms and Rain
11:45 AM 68.0 °F 66.2 °F 94% 30.04 in 0.8 mi SSE 5.8 mph - 1.61 in Rain , Thunderstorm Thunderstorms and Rain
11:54 AM 68.0 °F 66.0 °F 93% 30.04 in 0.8 mi Calm Calm - 1.65 in Rain , Thunderstorm Thunderstorms and Rain
12:01 PM 68.0 °F 66.2 °F 94% 30.06 in 1.0 mi Calm Calm - 0.01 in Rain , Thunderstorm Thunderstorms and Rain
12:38 PM 66.2 °F 64.4 °F 94% 30.04 in 1.0 mi ESE 6.9 mph - 0.41 in Rain , Thunderstorm Heavy Thunderstorms and Rain
12:54 PM 66.9 °F 64.9 °F 93% 30.02 in 1.0 mi SSE 5.8 mph - 0.50 in Rain , Thunderstorm Heavy Rain
1:01 PM 66.2 °F 64.4 °F 94% 30.04 in 5.0 mi SSE 4.6 mph - 0.01 in Rain , Thunderstorm Light Rain
1:10 PM 66.2 °F 64.4 °F 94% 30.04 in 1.8 mi Calm Calm - 0.02 in Rain , Thunderstorm Rain
1:27 PM 66.2 °F 64.4 °F 94% 30.02 in 3.0 mi SSE 4.6 mph - 0.16 in Rain , Thunderstorm Rain
1:36 PM 66.2 °F 64.4 °F 94% 30.02 in 10.0 mi SE 6.9 mph - 0.18 in Rain , Thunderstorm Rain
1:54 PM 66.9 °F 66.0 °F 97% 30.02 in 10.0 mi South 10.4 mph - 0.22 in Rain , Thunderstorm Heavy Rain
2:54 PM 66.9 °F 64.0 °F 90% 29.98 in 5.0 mi SSE 9.2 mph - 0.13 in Rain , Thunderstorm Light Thunderstorms and Rain
3:54 PM 66.9 °F 64.9 °F 93% 29.99 in 10.0 mi ESE 4.6 mph - 0.07 in   Overcast
4:54 PM 71.1 °F 66.0 °F 84% 29.93 in 10.0 mi SSE 11.5 mph - N/A   Clear
5:54 PM 75.0 °F 66.9 °F 76% 29.91 in 10.0 mi SSE 12.7 mph 21.9 mph N/A   Clear
6:54 PM 73.0 °F 66.0 °F 79% 29.89 in 10.0 mi South 13.8 mph 23.0 mph N/A   Clear
7:54 PM 72.0 °F 66.9 °F 84% 29.87 in 10.0 mi South 11.5 mph - N/A   Clear
8:54 PM 72.0 °F 66.9 °F 84% 29.89 in 10.0 mi South 8.1 mph - N/A   Clear
9:54 PM 73.0 °F 66.9 °F 81% 29.90 in 10.0 mi South 11.5 mph - N/A   Clear
10:54 PM 73.0 °F 68.0 °F 84% 29.88 in 10.0 mi SSE 9.2 mph - N/A   Clear
11:54 PM 73.9 °F 68.0 °F 82% 29.86 in 9.0 mi South 12.7 mph 23.0 mph N/A   Clear